Location: Newark
(47.1000°N, 5.3000°E)
Time: 17:28:28
(UTC+00:00)

OTV 5 (USA 277) - Visible Passes

Search period start: 15 October 2019 00:00
Search period end: 25 October 2019 00:00
Orbit: 310 x 324 km, 54.5° (Epoch: 08 October)

Date Brightness Start Highest point End Pass type
(mag) Time Alt. Az. Time Alt. Az. Time Alt. Az.
15 Oct ? 03:53:05 19° NNE 03:53:05 19° NNE 03:54:48 10° ENE visible
15 Oct ? 05:24:42 10° NW 05:27:26 60° NNE 05:30:08 10° ESE visible
16 Oct ? 04:07:19 25° N 04:07:30 25° NNE 04:09:52 10° ENE visible
17 Oct ? 04:21:37 35° N 04:22:13 42° NNE 04:24:51 10° E visible
18 Oct ? 04:36:01 41° WNW 04:36:50 89° S 04:39:34 10° SE visible
19 Oct ? 04:50:31 28° W 04:51:19 35° SW 04:53:51 10° SSE visible
20 Oct ? 03:34:13 11° ESE 03:34:13 11° ESE 03:34:22 10° ESE visible
20 Oct ? 05:05:08 15° WSW 05:05:41 15° SW 05:07:23 10° S visible
